Search your local weather  

 

Hazardous Weather Conditions

No active alerts for HOUSTON, TEXAS

Current Conditions: HOUSTON, TEXAS

Mostly Cloudy


83.0 F

Last Updated on Oct 21 2021, 12:53 pm CDT
Humidity: 59%
Wind Speed: SE 5.8 mph
Barometer 30.12 in
Dewpoint: 66.9 F
Visibility: 10.00 mi
Precip: --
Heat Index: 86 F
Wind Chill: NA
Current conditions at:

Houston Intercontinental Airport, TX (KIAH)

Lat: 29.9844 Lon: -95.36074

Local Radar Image active severe weather and emergency alerts image image weather storm and storm spotter reports image weather observation monitoring service image
Local
Radar
Active
Alerts
Storm Reports Weather
Monitoring

5 Day Forecast for HOUSTON, TEXAS (77001)

Thursday

Mostly Cloudy

High 88 °F
Thursday
Night
Partly Cloudy

Low 69 °F
Friday

Partly Sunny

High 86 °F
Friday
Night
Mostly Clear

Low 69 °F
Saturday

Chance of T-storms

High 84 °F
Saturday
Night
Partly Cloudy

Low 72 °F
Sunday

Chance of Scattered T-storms
High 85 °F
Sunday
Night
Partly Cloudy

Low 72 °F
Monday

Partly Sunny

High 87 °F

Sign-up For Email & Text Message Weather Alert Notification Services



Advertise Here

Observation History for HOUSTON, TEXAS


Time Wind
(mph)
Vis
(mi)
Weather Precip (in) Temperature (F) Relative
Humidity
Wind
Chill
(F)
Heat
Index
(F)
Pressure
Air Dwpt altimeter
(in)
sea level
(mb)
12:53 pm CDT SE 5.8 10.00 Mostly Cloudy -- 83.0 66.9 59% NA 86 30.12 1020.0
11:53 am CDT 4.6 10.00 Mostly Cloudy Trace 81.0 68.0 65% NA 84 30.14 1020.7
10:53 am CDT E 4.6 7.00 Mostly Cloudy -- 81.0 72.0 74% NA 85 30.16 1021.2
9:53 am CDT 6.9 2.50 Fog/Mist -- 73.0 71.1 94% NA NA 30.15 1021.1
8:53 am CDT N 3.5 0.00 Fog -- 72.0 71.1 97% NA NA 30.14 1020.5
7:53 am CDT 3.5 0.00 Fog -- 72.0 70.0 94% NA NA 30.12 1019.9
6:53 am CDT N 0.0 3.00 Fog/Mist -- 70.0 68.0 93% NA NA 30.11 1019.5
5:53 am CDT N 0.0 1.00 Fog/Mist -- 71.0 69.1 94% NA NA 30.09 1018.8
4:53 am CDT N 0.0 0.50 Fog -- 73.0 71.1 94% NA NA 30.07 1018.3
3:53 am CDT N 0.0 0.50 Fog -- 73.0 71.1 94% NA NA 30.06 1018.0
2:53 am CDT N 0.0 0.50 Fog/Mist Shallow Fog -- 72.0 69.1 91% NA NA 30.07 1018.3
1:53 am CDT SE 3.5 2.00 Mostly Cloudy -- 75.0 72.0 90% NA NA 30.07 1018.2
12:53 am CDT SE 3.5 2.00 Fog/Mist Shallow Fog -- 73.0 71.1 94% NA NA 30.08 1018.4
11:53 pm CDT SE 5.8 0.50 Fog/Mist Shallow Fog -- 73.0 70.0 90% NA NA 30.08 1018.6
10:53 pm CDT N 0.0 10.00 Mostly Cloudy -- 75.0 71.1 88% NA NA 30.08 1018.6
9:53 pm CDT SE 5.8 10.00 Mostly Cloudy -- 76.0 71.1 85% NA NA 30.07 1018.3
8:53 pm CDT S 4.6 10.00 Mostly Cloudy -- 75.0 70.0 84% NA NA 30.06 1017.9
7:53 pm CDT S 4.6 10.00 Partly Cloudy -- 77.0 70.0 79% NA NA 30.04 1017.2
6:53 pm CDT 4.6 10.00 Partly Cloudy -- 78.0 70.0 76% NA NA 30.03 1016.9
5:53 pm CDT E 5.8 10.00 Mostly Cloudy -- 84.0 69.1 61% NA 88 30.03 1016.8
4:53 pm CDT E 3.5 10.00 Partly Cloudy -- 86.0 69.1 57% NA 90 30.03 1016.9
3:53 pm CDT SE 3.5 10.00 Partly Cloudy -- 87.0 69.1 55% NA 91 30.04 1017.0
2:53 pm CDT N 0.0 10.00 Partly Cloudy -- 84.0 68.0 59% NA 87 30.05 1017.6
1:53 pm CDT E 5.8 10.00 Mostly Cloudy -- 85.0 69.1 59% NA 89 30.07 1018.2

Regional Weather Observation

Houston, Hooks Memorial Airport, TX (KDWH)

Mostly Cloudy
85.0 F

Houston Executive Airport, TX (KTME)

A Few Clouds
84.0 F

John Dunn Helistop, TX (KMCJ)

Partly Cloudy
82.0 F

Houston, Sugar Land Municipal / Hull Field Airport, TX (KSGR)

A Few Clouds
85.0 F

Houston, Houston Hobby Airport, TX (KHOU)

Partly Cloudy
86.0 F

Conroe, Montgomery County Airport, TX (KCXO)

A Few Clouds
84.0 F

Advertise Here


Advertise Here